2022-01-16 00:03:11 r, 15.82m,0000000051Hz,0000011599c,0000000.025s, 004.5C,00002191
2022-01-16 00:13:12 r, 15.51m,0000000052Hz,0000008804c,0000000.019s, 004.5C,00002191
2022-01-16 00:23:12 r, 15.67m,0000000045Hz,0000010197c,0000000.022s, 004.5C,00002191
2022-01-16 00:33:11 r, 15.85m,0000000039Hz,0000011975c,0000000.026s, 004.1C,00002191
2022-01-16 00:43:13 r, 16.07m,0000000031Hz,0000014632c,0000000.032s, 004.1C,00002191
2022-01-16 00:53:12 r, 16.29m,0000000025Hz,0000018068c,0000000.039s, 003.8C,00002191
2022-01-16 01:03:11 r, 16.57m,0000000020Hz,0000023258c,0000000.050s, 003.8C,00002191
2022-01-16 01:13:12 r, 16.74m,0000000017Hz,0000027171c,0000000.059s, 003.8C,00002191
2022-01-16 01:23:14 r, 16.86m,0000000015Hz,0000030498c,0000000.066s, 003.8C,00002191
2022-01-16 01:33:11 r, 16.98m,0000000014Hz,0000034132c,0000000.074s, 003.8C,00002191
2022-01-16 01:43:14 r, 17.09m,0000000013Hz,0000037622c,0000000.082s, 003.8C,00002191
2022-01-16 01:53:12 r, 17.16m,0000000012Hz,0000039997c,0000000.087s, 003.8C,00002191
2022-01-16 02:03:11 r, 16.35m,0000000024Hz,0000019039c,0000000.041s, 003.8C,00002191
2022-01-16 02:13:12 r, 16.33m,0000000024Hz,0000018807c,0000000.041s, 004.1C,00002191
2022-01-16 02:23:13 r, 16.32m,0000000025Hz,0000018457c,0000000.040s, 004.8C,00002191
2022-01-16 02:33:11 r, 16.33m,0000000024Hz,0000018752c,0000000.041s, 005.4C,00002191
2022-01-16 02:43:13 r, 16.33m,0000000024Hz,0000018702c,0000000.041s, 006.1C,00002191
2022-01-16 02:53:12 r, 16.38m,0000000024Hz,0000019507c,0000000.042s, 006.4C,00002191
2022-01-16 03:03:11 r, 16.39m,0000000023Hz,0000019720c,0000000.043s, 006.7C,00002191
2022-01-16 03:13:12 r, 16.44m,0000000022Hz,0000020616c,0000000.045s, 007.4C,00002191
2022-01-16 03:23:14 r, 16.50m,0000000021Hz,0000022011c,0000000.048s, 007.7C,00002191
2022-01-16 03:33:11 r, 16.56m,0000000020Hz,0000023017c,0000000.050s, 008.0C,00002191
2022-01-16 03:43:14 r, 16.57m,0000000020Hz,0000023325c,0000000.051s, 008.0C,00002191
2022-01-16 03:53:12 r, 16.71m,0000000018Hz,0000026379c,0000000.057s, 008.3C,00002191
2022-01-16 04:03:11 r, 16.76m,0000000017Hz,0000027703c,0000000.060s, 008.7C,00002191
2022-01-16 04:13:14 r, 16.81m,0000000016Hz,0000029002c,0000000.063s, 008.7C,00002191
2022-01-16 04:23:12 r, 16.89m,0000000015Hz,0000031028c,0000000.067s, 009.0C,00002191
2022-01-16 04:33:11 r, 16.87m,0000000015Hz,0000030532c,0000000.066s, 009.3C,00002191
2022-01-16 04:43:12 r, 16.91m,0000000015Hz,0000031806c,0000000.069s, 009.6C,00002191
2022-01-16 04:53:13 r, 16.94m,0000000014Hz,0000032882c,0000000.071s, 009.9C,00002191
2022-01-16 05:03:11 r, 16.84m,0000000016Hz,0000029842c,0000000.065s, 009.9C,00002191
2022-01-16 05:13:13 r, 16.84m,0000000015Hz,0000029808c,0000000.065s, 009.9C,00002191
2022-01-16 05:23:12 r, 16.86m,0000000015Hz,0000030541c,0000000.066s, 010.3C,00002191
2022-01-16 05:33:11 r, 16.95m,0000000014Hz,0000033055c,0000000.072s, 010.3C,00002191
2022-01-16 05:43:12 r, 17.01m,0000000013Hz,0000034864c,0000000.076s, 010.9C,00002191
2022-01-16 05:53:14 r, 17.05m,0000000013Hz,0000036191c,0000000.079s, 011.2C,00002191
2022-01-16 06:03:11 r, 17.24m,0000000011Hz,0000043256c,0000000.094s, 011.6C,00002191
2022-01-16 06:13:14 r, 17.27m,0000000010Hz,0000044405c,0000000.096s, 011.9C,00002191
2022-01-16 06:23:12 r, 17.45m,0000000008Hz,0000052504c,0000000.114s, 011.9C,00002191
2022-01-16 06:33:11 r, 17.44m,0000000009Hz,0000051791c,0000000.112s, 012.2C,00002191
2022-01-16 06:43:14 r, 17.31m,0000000010Hz,0000046241c,0000000.100s, 012.2C,00002191
2022-01-16 06:53:12 r, 17.31m,0000000010Hz,0000046043c,0000000.100s, 012.2C,00002191
2022-01-16 07:03:11 r, 17.32m,0000000010Hz,0000046498c,0000000.101s, 012.2C,00002191
2022-01-16 07:13:12 r, 17.12m,0000000012Hz,0000038813c,0000000.084s, 012.5C,00002191
2022-01-16 07:23:13 r, 16.64m,0000000018Hz,0000024884c,0000000.054s, 012.5C,00002191
2022-01-16 07:33:11 r, 15.58m,0000000049Hz,0000009393c,0000000.020s, 012.5C,00002191
2022-01-16 07:43:13 r, 13.79m,0000000258Hz,0000000000c,0000000.000s, 012.5C,00002191
2022-01-16 07:53:12 r, 11.88m,0000001495Hz,0000000000c,0000000.000s, 012.5C,00002191
2022-01-16 08:03:11 r, 09.45m,0000014041Hz,0000000000c,0000000.000s, 012.2C,00002191
2022-01-16 08:13:12 r, 08.35m,0000038867Hz,0000000000c,0000000.000s, 011.9C,00002191
2022-01-16 08:23:14 r, 07.07m,0000125620Hz,0000000000c,0000000.000s, 011.6C,00002191
2022-01-16 08:33:11 r, 06.19m,0000283596Hz,0000000000c,0000000.000s, 011.2C,00002191
2022-01-16 08:43:11 r, 00.00m,0000507622Hz,0000000000c,0000000.000s, 011.2C,00002191
2022-01-16 08:53:12 r, 00.00m,0000598266Hz,0000000000c,0000000.000s, 011.2C,00002191
2022-01-16 09:03:11 r, 00.00m,0000598355Hz,0000000000c,0000000.000s, 011.2C,00002191
2022-01-16 09:13:14 r, 00.00m,0000598268Hz,0000000000c,0000000.000s, 011.2C,00002191
2022-01-16 09:23:12 r, 00.00m,0000598251Hz,0000000000c,0000000.000s, 011.6C,00002191
2022-01-16 09:33:11 r, 00.00m,0000598289Hz,0000000000c,0000000.000s, 011.6C,00002191
2022-01-16 09:43:12 r, 00.00m,0000598327Hz,0000000000c,0000000.000s, 011.6C,00002191
2022-01-16 09:53:14 r, 00.00m,0000598249Hz,0000000000c,0000000.000s, 011.6C,00002191
2022-01-16 10:03:11 r, 00.00m,0000598328Hz,0000000000c,0000000.000s, 011.9C,00002191
2022-01-16 10:13:11 r, 00.00m,0000598252Hz,0000000000c,0000000.000s, 011.6C,00002191
2022-01-16 10:23:14 r, 00.00m,0000598221Hz,0000000000c,0000000.000s, 011.9C,00002191
2022-01-16 10:33:11 r, 00.00m,0000598141Hz,0000000000c,0000000.000s, 012.2C,00002191
2022-01-16 10:43:11 r, 00.00m,0000598183Hz,0000000000c,0000000.000s, 012.5C,00002191
2022-01-16 10:53:12 r, 00.00m,0000598211Hz,0000000000c,0000000.000s, 012.5C,00002191
2022-01-16 11:03:11 r, 00.00m,0000598069Hz,0000000000c,0000000.000s, 012.8C,00002191
2022-01-16 11:13:14 r, 00.00m,0000598102Hz,0000000000c,0000000.000s, 012.8C,00002191
2022-01-16 11:23:12 r, 00.00m,0000597897Hz,0000000000c,0000000.000s, 012.8C,00002191
2022-01-16 11:33:11 r, 00.00m,0000598050Hz,0000000000c,0000000.000s, 012.8C,00002191
2022-01-16 11:43:12 r, 00.00m,0000598014Hz,0000000000c,0000000.000s, 012.8C,00002191
2022-01-16 11:53:13 r, 00.00m,0000598091Hz,0000000000c,0000000.000s, 013.2C,00002191
2022-01-16 12:03:11 r, 00.00m,0000598022Hz,0000000000c,0000000.000s, 013.2C,00002191
2022-01-16 12:13:11 r, 00.00m,0000597928Hz,0000000000c,0000000.000s, 013.2C,00002191
2022-01-16 12:23:14 r, 00.00m,0000598000Hz,0000000000c,0000000.000s, 013.2C,00002191
2022-01-16 12:33:11 r, 00.00m,0000598097Hz,0000000000c,0000000.000s, 013.2C,00002191
2022-01-16 12:43:11 r, 00.00m,0000598080Hz,0000000000c,0000000.000s, 012.8C,00002191
2022-01-16 12:53:14 r, 00.00m,0000597988Hz,0000000000c,0000000.000s, 013.2C,00002191
2022-01-16 13:03:11 r, 00.00m,0000597903Hz,0000000000c,0000000.000s, 013.2C,00002191
2022-01-16 13:13:14 r, 00.00m,0000597891Hz,0000000000c,0000000.000s, 013.5C,00002191
2022-01-16 13:23:12 r, 00.00m,0000597820Hz,0000000000c,0000000.000s, 013.8C,00002191
2022-01-16 13:33:11 r, 00.00m,0000597931Hz,0000000000c,0000000.000s, 013.5C,00002191
2022-01-16 13:43:14 r, 00.00m,0000597961Hz,0000000000c,0000000.000s, 013.2C,00002191
2022-01-16 13:53:12 r, 00.00m,0000597955Hz,0000000000c,0000000.000s, 013.2C,00002191
2022-01-16 14:03:11 r, 00.00m,0000597924Hz,0000000000c,0000000.000s, 012.8C,00002191
2022-01-16 14:13:12 r, 00.00m,0000598015Hz,0000000000c,0000000.000s, 012.2C,00002191
2022-01-16 14:23:13 r, 00.00m,0000598061Hz,0000000000c,0000000.000s, 012.2C,00002191
2022-01-16 14:33:11 r, 00.00m,0000598087Hz,0000000000c,0000000.000s, 011.9C,00002191
2022-01-16 14:43:11 r, 00.00m,0000598223Hz,0000000000c,0000000.000s, 011.6C,00002191
2022-01-16 14:53:14 r, 00.00m,0000598132Hz,0000000000c,0000000.000s, 011.6C,00002191
2022-01-16 15:03:11 r, 00.00m,0000598129Hz,0000000000c,0000000.000s, 011.6C,00002191
2022-01-16 15:13:13 r, 00.00m,0000598057Hz,0000000000c,0000000.000s, 011.2C,00002191
2022-01-16 15:23:12 r, 00.00m,0000598189Hz,0000000000c,0000000.000s, 011.2C,00002191
2022-01-16 15:33:11 r, 00.00m,0000598159Hz,0000000000c,0000000.000s, 010.9C,00002191
2022-01-16 15:43:14 r, 00.00m,0000598202Hz,0000000000c,0000000.000s, 010.6C,00002191
2022-01-16 15:53:12 r, 00.00m,0000598183Hz,0000000000c,0000000.000s, 010.3C,00002191
2022-01-16 16:03:11 r, 00.00m,0000598309Hz,0000000000c,0000000.000s, 009.9C,00002191
2022-01-16 16:13:11 r, 00.00m,0000582649Hz,0000000000c,0000000.000s, 009.3C,00002191
2022-01-16 16:23:12 r, 06.05m,0000321875Hz,0000000000c,0000000.000s, 008.7C,00002191
2022-01-16 16:33:11 r, 06.32m,0000250632Hz,0000000000c,0000000.000s, 008.0C,00002191
2022-01-16 16:43:11 r, 06.37m,0000238803Hz,0000000000c,0000000.000s, 007.4C,00002191
2022-01-16 16:53:12 r, 07.04m,0000128809Hz,0000000000c,0000000.000s, 007.0C,00002191
2022-01-16 17:03:11 r, 07.86m,0000060484Hz,0000000000c,0000000.000s, 007.0C,00002191
2022-01-16 17:13:11 r, 09.22m,0000017293Hz,0000000000c,0000000.000s, 007.0C,00002191
2022-01-16 17:23:14 r, 10.93m,0000003580Hz,0000000000c,0000000.000s, 007.0C,00002191
2022-01-16 17:33:12 r, 13.01m,0000000531Hz,0000000000c,0000000.000s, 007.0C,00002191
2022-01-16 17:43:11 r, 15.10m,0000000078Hz,0000005989c,0000000.013s, 006.7C,00002191
2022-01-16 17:53:12 r, 16.19m,0000000028Hz,0000016428c,0000000.036s, 006.4C,00002191
2022-01-16 18:03:13 r, 17.16m,0000000011Hz,0000040264c,0000000.087s, 006.1C,00002191
2022-01-16 18:13:11 r, 17.39m,0000000009Hz,0000049201c,0000000.107s, 006.1C,00002191
2022-01-16 18:23:13 r, 16.73m,0000000017Hz,0000026921c,0000000.058s, 005.8C,00002191
2022-01-16 18:33:12 r, 16.85m,0000000015Hz,0000030031c,0000000.065s, 005.8C,00002191
2022-01-16 18:43:11 r, 16.81m,0000000016Hz,0000029142c,0000000.063s, 006.1C,00002191
2022-01-16 18:53:12 r, 16.94m,0000000014Hz,0000032719c,0000000.071s, 006.1C,00002191
2022-01-16 19:03:14 r, 16.85m,0000000015Hz,0000029975c,0000000.065s, 006.4C,00002191
2022-01-16 19:13:11 r, 16.82m,0000000015Hz,0000029348c,0000000.064s, 006.4C,00002191
2022-01-16 19:23:14 r, 16.89m,0000000014Hz,0000031450c,0000000.068s, 006.4C,00002191
2022-01-16 19:33:12 r, 17.03m,0000000013Hz,0000035586c,0000000.077s, 006.4C,00002191
2022-01-16 19:43:11 r, 17.12m,0000000012Hz,0000038687c,0000000.084s, 006.4C,00002191
2022-01-16 19:53:14 r, 17.55m,0000000008Hz,0000057099c,0000000.124s, 006.4C,00002191
2022-01-16 20:03:12 r, 17.08m,0000000012Hz,0000037141c,0000000.081s, 006.1C,00002191
2022-01-16 20:13:11 r, 17.67m,0000000008Hz,0000064237c,0000000.139s, 005.8C,00002191
2022-01-16 20:23:12 r, 17.59m,0000000007Hz,0000059567c,0000000.129s, 005.4C,00002191
2022-01-16 20:33:13 r, 16.73m,0000000016Hz,0000026962c,0000000.059s, 005.1C,00002191
2022-01-16 20:43:11 r, 16.13m,0000000030Hz,0000015565c,0000000.034s, 005.1C,00002191
2022-01-16 20:53:13 r, 16.08m,0000000031Hz,0000014805c,0000000.032s, 005.4C,00002191
2022-01-16 21:03:12 r, 16.15m,0000000029Hz,0000015837c,0000000.034s, 005.8C,00002191
2022-01-16 21:13:11 r, 16.05m,0000000032Hz,0000014371c,0000000.031s, 006.1C,00002191
2022-01-16 21:23:12 r, 15.99m,0000000034Hz,0000013641c,0000000.030s, 006.4C,00002191
2022-01-16 21:33:14 r, 15.98m,0000000034Hz,0000013566c,0000000.029s, 006.4C,00002191
2022-01-16 21:43:11 r, 16.07m,0000000032Hz,0000014609c,0000000.032s, 006.4C,00002191
2022-01-16 21:53:14 r, 15.88m,0000000037Hz,0000012380c,0000000.027s, 006.7C,00002191
2022-01-16 22:03:12 r, 15.99m,0000000034Hz,0000013605c,0000000.030s, 006.7C,00002191
2022-01-16 22:13:11 r, 15.97m,0000000034Hz,0000013472c,0000000.029s, 006.7C,00002191
2022-01-16 22:23:14 r, 15.93m,0000000036Hz,0000012917c,0000000.028s, 007.0C,00002191
2022-01-16 22:33:12 r, 15.97m,0000000035Hz,0000013491c,0000000.029s, 007.0C,00002191
2022-01-16 22:43:11 r, 15.99m,0000000033Hz,0000013644c,0000000.030s, 007.0C,00002191
2022-01-16 22:53:12 r, 16.06m,0000000032Hz,0000014590c,0000000.032s, 007.0C,00002191
2022-01-16 23:03:13 r, 16.07m,0000000031Hz,0000014762c,0000000.032s, 007.0C,00002191
2022-01-16 23:13:11 r, 16.12m,0000000030Hz,0000015367c,0000000.033s, 007.0C,00002191
2022-01-16 23:23:13 r, 16.04m,0000000033Hz,0000014242c,0000000.031s, 006.7C,00002191
2022-01-16 23:33:12 r, 16.07m,0000000031Hz,0000014609c,0000000.032s, 007.0C,00002191
2022-01-16 23:43:11 r, 16.02m,0000000033Hz,0000013999c,0000000.030s, 007.4C,00002191
2022-01-16 23:53:12 r, 16.04m,0000000032Hz,0000014307c,0000000.031s, 007.4C,00002191
